Tracking 19709 objects as of 18-Jun-2019
HD Live streaming from Space Station
objects crossing your sky now

XM-2

Track XM-2 now!
XM-2 is classified as:


NORAD ID: 26724
Int'l Code: 2001-012A
Perigee: 36,103.7 km
Apogee: 36,158.6 km
Inclination: 3.7 °
Period: 1,453.4 minutes
Semi major axis: 42502 km
RCS: 25.1188 m2 (large)
Launch date: March 18, 2001
Source: United States (US)
Launch site: SEA LAUNCH (SEAL)

100 channels of digital music uplinked in the X-band from one or more ground stations.
aabbcc
Your satellite tracking list
Your tracking list is empty




NASA's NSSDC Master Catalog

Two Line Element Set (TLE):
1 26724U 01012A   19169.43191417  .00000060  00000-0  00000+0 0  9996
2 26724   3.6810  76.4634 0006449   5.8850 220.9403  0.99080169 66701
Source of the keplerian elements: AFSPC